User: anonymous   Login
Location: Unspecified
(0.0000°N, 0.0000°E)
Time: 23:02:05
(UTC+00:00)
Language:

ARIANE 5 R/B - Orbit

View from above orbital plane
View from above orbital plane
View from above satellite
View from above satellite

Ground track
Ground track

The orbit data is extracted from the following two-line orbital elements,

1 38993U 12062C   18316.71007136 +.00006040 +00000-0 +90442-3 0  9999
2 38993 002.6882 294.4341 7148314 318.0976 005.1143 02.46355705052489
Epoch (UTC): 12 November 2018 17:02:30
Eccentricity: 0.7148314
inclination: 2.6882°
perigee height: 225 km
apogee height: 33333 km
right ascension of ascending node: 294.4341°
argument of perigee: 318.0976°
revolutions per day: 2.46355705
mean anomaly at epoch: 5.1143°
orbit number at epoch: 5248

The dashed part of the orbit path shows where the satellite is in the earth's shadow,  

DLR